User: anonymous   Login
Location: Taipo
(41.0000°S, 175.9500°E)
Time: 14:06:24
(UTC+00:00)
Language:

DELTA 2 R/B (1) - Orbit

View from above orbital plane
View from above orbital plane
View from above satellite
View from above satellite

Ground track
Ground track

The orbit data is extracted from the following two-line orbital elements,

1 27665U 03005C   24175.89954403  .00000216  00000-0  11786-3 0  9990
2 27665  39.5772  13.1812 0008317   6.8508 138.8844 14.29027699117513
Epoch (UTC): 23 June 2024 21:35:20
Eccentricity: 0.0008317
inclination: 39.5772°
perigee height: 789 km
apogee height: 801 km
right ascension of ascending node: 13.1812°
argument of perigee: 6.8508°
revolutions per day: 14.29027699
mean anomaly at epoch: 138.8844°
orbit number at epoch: 11751

The dashed part of the orbit path shows where the satellite is in the earth's shadow,  

DLR